Regional Weather Roundup
Issued by NWS

Home | Current Version | Previous Version | Graphics & Text | Print | Product List | Glossary On
Versions: 1 2 3 4 5 6 7 8 9 10 11 12 13 14 15 16 17 18 19 20 21 22 23 24 25 26 27 28 29 30 31 32 33 34 35 36 37 38 39 40 41 42 43 44 45 46 47 48 49 50
538
ASUS43 KBIS 251810
RWRND

NORTH DAKOTA REGIONAL WEATHER ROUNDUP
NATIONAL WEATHER SERVICE BISMARCK ND
1200 PM CST SAT FEB 25 2017

NOTE: "FAIR" INDICATES FEW OR NO CLOUDS BELOW 12,000 FEET WITH NO
SIGNIFICANT WEATHER AND/OR OBSTRUCTIONS TO VISIBILITY.


NDZ001>003-009>011-017-251900-
NORTHWEST NORTH DAKOTA

CITY           SKY/WX    TMP DP  RH WIND       PRES   REMARKS
WILLISTON      CLOUDY    22  17  81 SW6       29.83F WCI  14
6HR MIN TEMP:  18; 6HR MAX TEMP:  23; 6HR PCP: TRACE;

MINOT          PTSUNNY   23  15  71 W13       29.83F WCI  11
MINOT AFB      MOSUNNY   20  12  72 NW15      29.83F WCI   6
$$

NDZ018>021-031>035-040>046-251900-
SOUTHWEST NORTH DAKOTA

CITY           SKY/WX    TMP DP  RH WIND       PRES   REMARKS
BISMARCK       CLOUDY    27  22  81 N9        29.86F WCI  18
6HR MIN TEMP:  19; 6HR MAX TEMP:  28; 6HR PCP:  0.01;

DICKINSON      CLOUDY    24  18  77 CALM      29.79F
GARRISON         N/A     25  19  78 N8        29.83F WCI  16
6HR MIN TEMP:  18; 6HR MAX TEMP:  25;

HETTINGER ARPT CLOUDY    27  19  72 NW13      29.84F WCI  16
$$

NDZ004>008-012>016-024-026-027-054-251900-
NORTHEAST NORTH DAKOTA

CITY           SKY/WX    TMP DP  RH WIND       PRES   REMARKS
GRAND FORKS    PTSUNNY   31  19  61 W12       29.81F
GRND FRKS AFB  PTSUNNY   30  21  70 NW15      29.81F WCI  19
DEVILS LAKE    PTSUNNY   24  19  81 W12       29.81F WCI  13
$$

NDZ022-023-025-028>030-036>039-047>053-251900-
SOUTHEAST NORTH DAKOTA

CITY           SKY/WX    TMP DP  RH WIND       PRES   REMARKS
FARGO          CLOUDY    30  21  69 SW14      29.85F WCI  19
6HR MIN TEMP:  18; 6HR MAX TEMP:  31;

JAMESTOWN      CLOUDY    25  21  85 NW10      29.82F WCI  15
$$





USA.gov is the U.S. government's official web portal to all federal, state and local government web resources and services.